Date String (YYYY-MM-DD hh:mm:ss) UTC,Instrument flags,absolute air pressure of the measurement (hPa),sample flow rate (lpm),inlet stack bypass flow (lpm),air temperature of the measurement (°C),ambient temperature measured by the external sensor (°C),aerosol sample conditioner tube jacket temperature (°C),OPC LED temperature (°C),internal box temperature (°C),relative humidity of the measurement (%),span deviation,mass concentration of particles derived from Lorenz-Mie calculation of OPC scattering (μg/m³),mass concentration of particles derived from Lorenz-Mie calculation of OPC scattering (μg/m³),mass concentration of particles derived from Lorenz-Mie calculation of OPC scattering (μg/m³)
DateTimeUTC,F1_M11,P_M11,Q1_M11,Q2_M11,T1_M11,T2_M11,T3_M11,T4_M11,T5_M11,U1_M11,ZSPAN_M11,X0_M11,X2_M11,X1_M11
2024-04-21 16:00:00,SystemResetWarning,0836.3,5.00,000.00,019.3,018.9,000.0,027.6,021.1,025.8,-000.4,0017.73,0012.31,0011.98
2024-04-21 16:01:00,SystemResetWarning,0836.3,5.00,000.00,019.3,018.9,000.0,027.6,021.1,025.4,-000.5,0017.80,0012.36,0012.05
2024-04-21 16:02:00,SystemResetWarning,0836.3,5.00,000.00,019.3,018.9,000.0,027.7,021.1,025.4,-000.5,0017.90,0012.43,0012.13
2024-04-21 16:03:00,SystemResetWarning,0836.3,5.00,000.00,019.3,018.9,000.0,027.7,021.1,025.3,-000.5,0017.93,0012.51,0012.21
2024-04-21 16:04:00,SystemResetWarning,0836.3,4.99,000.00,019.3,018.9,000.0,027.7,021.1,025.3,-000.2,0018.38,0012.61,0012.28
2024-04-21 16:05:00,SystemResetWarning,0836.2,4.99,000.00,019.4,018.9,000.0,027.7,021.1,026.4,-000.0,0018.43,0012.62,0012.27
2024-04-21 16:06:00,SystemResetWarning,0836.3,5.01,000.00,019.4,019.0,000.0,027.7,021.1,025.9,0000.1,0018.48,0012.65,0012.28
2024-04-21 16:07:00,SystemResetWarning,0836.3,5.01,000.00,019.4,019.0,000.0,027.7,021.1,025.6,0000.1,0018.63,0012.72,0012.32
2024-04-21 16:08:00,SystemResetWarning,0836.2,5.01,000.00,019.4,019.0,000.0,027.7,021.2,025.6,0000.3,0018.65,0012.75,0012.35
2024-04-21 16:09:00,SystemResetWarning,0836.3,4.99,000.00,019.4,019.0,000.0,027.7,021.2,025.9,0000.4,0017.98,0012.78,0012.38
2024-04-21 16:10:00,SystemResetWarning,0836.2,4.99,000.00,019.4,019.0,000.0,027.7,021.2,027.0,0000.4,0017.75,0012.78,0012.40
2024-04-21 16:11:00,SystemResetWarning,0836.3,5.01,000.00,019.4,019.0,000.0,027.8,021.2,026.5,0000.5,0017.77,0012.83,0012.46
2024-04-21 16:12:00,SystemResetWarning,0836.3,5.01,000.00,019.4,019.0,000.0,027.8,021.2,026.1,0000.4,0017.86,0012.89,0012.52
2024-04-21 16:13:00,SystemResetWarning,0836.3,4.99,000.00,019.5,019.1,000.0,027.8,021.2,026.1,0000.4,0017.90,0012.93,0012.54
2024-04-21 16:14:00,SystemResetWarning,0836.3,5.00,000.00,019.5,019.1,000.0,027.8,021.2,025.7,0000.3,0018.00,0012.99,0012.59
2024-04-21 16:15:00,SystemResetWarning,0836.3,5.00,000.00,019.5,019.1,000.0,027.8,021.3,026.2,0000.2,0017.76,0013.01,0012.65
2024-04-21 16:16:00,SystemResetWarning,0836.2,5.00,000.00,019.5,019.1,000.0,027.8,021.3,025.6,0000.2,0017.74,0013.06,0012.72
2024-04-21 16:17:00,SystemResetWarning,0836.3,5.00,000.00,019.5,019.1,000.0,027.8,021.3,025.5,0000.1,0017.75,0013.09,0012.77
2024-04-21 16:18:00,SystemResetWarning,0836.2,5.00,000.00,019.5,019.1,000.0,027.8,021.3,025.8,0000.2,0017.94,0013.09,0012.81
2024-04-21 16:19:00,SystemResetWarning,0836.2,5.00,000.00,019.5,019.2,000.0,027.8,021.3,025.6,0000.3,0018.22,0013.13,0012.85
2024-04-21 16:20:00,SystemResetWarning,0836.3,5.00,000.00,019.6,019.2,000.0,027.9,021.3,025.6,0000.4,0018.24,0013.16,0012.88
2024-04-21 16:21:00,SystemResetWarning,0836.3,5.01,000.00,019.6,019.2,000.0,027.9,021.3,025.8,0000.3,0018.40,0013.24,0012.95
2024-04-21 16:22:00,SystemResetWarning,0836.3,5.00,000.00,019.6,019.2,000.0,027.9,021.4,025.9,0000.3,0018.45,0013.28,0012.98
2024-04-21 16:23:00,SystemResetWarning,0836.3,5.00,000.00,019.6,019.2,000.0,027.9,021.4,025.7,0000.4,0018.41,0013.28,0012.99
2024-04-21 16:24:00,SystemResetWarning,0836.3,5.00,000.00,019.6,019.2,000.0,027.9,021.4,025.8,0000.5,0018.60,0013.29,0013.00
2024-04-21 16:25:00,SystemResetWarning,0836.3,5.00,000.00,019.6,019.3,000.0,027.9,021.4,026.4,0000.4,0018.57,0013.25,0012.96
2024-04-21 16:26:00,SystemResetWarning,0836.2,4.99,000.00,019.6,019.3,000.0,027.9,021.4,027.1,0000.3,0018.99,0013.26,0012.96
2024-04-21 16:27:00,SystemResetWarning,0836.2,4.99,000.00,019.7,019.3,000.0,028.0,021.4,026.6,0000.3,0019.29,0013.28,0012.97
2024-04-21 16:28:00,SystemResetWarning,0836.2,5.00,000.00,019.7,019.3,000.0,028.0,021.5,027.2,0000.4,0019.28,0013.28,0012.98
2024-04-21 16:29:00,SystemResetWarning,0836.2,5.00,000.00,019.7,019.3,000.0,028.0,021.5,029.1,0000.4,0019.18,0013.33,0012.99
2024-04-21 16:30:00,SystemResetWarning,0836.3,5.00,000.00,019.7,019.3,000.0,028.0,021.5,027.7,0000.3,0019.05,0013.37,0013.01
2024-04-21 16:31:00,SystemResetWarning,0836.3,5.01,000.00,019.7,019.3,000.0,028.0,021.5,026.2,0000.3,0019.02,0013.35,0013.01
2024-04-21 16:32:00,SystemResetWarning,0836.2,5.01,000.00,019.7,019.3,000.0,028.0,021.5,026.2,0000.4,0019.00,0013.33,0012.98
2024-04-21 16:33:00,SystemResetWarning,0836.2,5.01,000.00,019.8,019.4,000.0,028.0,021.5,026.5,0000.3,0018.95,0013.30,0012.95
2024-04-21 16:34:00,SystemResetWarning,0836.2,5.00,000.00,019.8,019.4,000.0,028.1,021.6,027.6,0000.2,0018.93,0013.28,0012.92
2024-04-21 16:35:00,SystemResetWarning,0836.3,4.99,000.00,019.8,019.4,000.0,028.1,021.5,027.3,0000.1,0018.80,0013.29,0012.94
2024-04-21 16:36:00,SystemResetWarning,0836.2,4.99,000.00,019.8,019.4,000.0,028.1,021.6,027.1,0000.2,0018.83,0013.34,0012.98
2024-04-21 16:37:00,SystemResetWarning,0836.3,5.00,000.00,019.8,019.4,000.0,028.1,021.6,027.5,0000.3,0018.41,0013.30,0012.97
2024-04-21 16:38:00,SystemResetWarning,0836.2,5.01,000.00,019.8,019.5,000.0,028.1,021.6,026.4,0000.2,0018.14,0013.27,0012.95
2024-04-21 16:39:00,SystemResetWarning,0836.2,5.00,000.00,019.8,019.5,000.0,028.1,021.6,026.3,0000.3,0018.17,0013.26,0012.93
2024-04-21 16:40:00,SystemResetWarning,0836.2,5.00,000.00,019.9,019.5,000.0,028.1,021.6,026.6,0000.1,0018.08,0013.24,0012.92
2024-04-21 16:41:00,SystemResetWarning,0836.2,5.00,000.00,019.9,019.5,000.0,028.1,021.7,026.5,0000.1,0018.04,0013.23,0012.91
2024-04-21 16:42:00,SystemResetWarning,0836.2,5.01,000.00,019.9,019.5,000.0,028.2,021.7,026.6,0000.2,0018.28,0013.30,0012.94
2024-04-21 16:43:00,SystemResetWarning,0836.2,4.99,000.00,019.9,019.6,000.0,028.2,021.7,026.7,0000.0,0018.39,0013.33,0012.97
2024-04-21 16:44:00,SystemResetWarning,0836.2,5.00,000.00,019.9,019.6,000.0,028.2,021.7,026.9,0000.1,0018.46,0013.36,0012.97
2024-04-21 16:45:00,SystemResetWarning,0836.2,4.99,000.00,019.9,019.6,000.0,028.2,021.7,026.9,0000.0,0018.98,0013.39,0012.99
2024-04-21 16:46:00,SystemResetWarning,0836.2,4.99,000.00,020.0,019.6,000.0,028.2,021.7,027.7,0000.1,0019.44,0013.41,0012.99
2024-04-21 16:47:00,SystemResetWarning,0836.2,5.00,000.00,020.0,019.6,000.0,028.2,021.8,028.5,0000.2,0019.41,0013.38,0012.96
2024-04-21 16:48:00,SystemResetWarning,0836.2,5.01,000.00,020.0,019.6,000.0,028.2,021.8,027.8,0000.1,0019.37,0013.37,0012.94
2024-04-21 16:49:00,SystemResetWarning,0836.2,5.01,000.00,020.0,019.6,000.0,028.3,021.8,027.2,0000.1,0019.42,0013.39,0012.95
2024-04-21 16:50:00,SystemResetWarning,0836.1,5.00,000.00,020.0,019.6,000.0,028.3,021.8,027.5,0000.1,0019.41,0013.40,0012.97
2024-04-21 16:51:00,SystemResetWarning,0836.1,5.00,000.00,020.0,019.7,000.0,028.3,021.8,027.2,0000.1,0019.66,0013.38,0012.96
2024-04-21 16:52:00,SystemResetWarning,0836.1,4.99,000.00,020.0,019.7,000.0,028.3,021.8,027.9,0000.1,0020.22,0013.38,0012.96
2024-04-21 16:53:00,SystemResetWarning,0836.1,5.00,000.00,020.1,019.7,000.0,028.3,021.8,026.9,0000.0,0020.17,0013.36,0012.95
2024-04-21 16:54:00,SystemResetWarning,0836.1,5.00,000.00,020.1,019.7,000.0,028.3,021.8,026.7,0000.1,0020.49,0013.34,0012.94
2024-04-21 16:55:00,SystemResetWarning,0836.1,5.00,000.00,020.1,019.7,000.0,028.4,021.9,026.8,0000.1,0021.12,0013.31,0012.94
2024-04-21 16:56:00,SystemResetWarning,0836.1,5.01,000.00,020.1,019.7,000.0,028.4,021.9,027.0,0000.1,0020.64,0013.29,0012.90
2024-04-21 16:57:00,SystemResetWarning,0836.2,5.00,000.00,020.1,019.7,000.0,028.4,021.9,026.5,0000.0,0020.17,0013.25,0012.87
2024-04-21 16:58:00,SystemResetWarning,0836.1,5.00,000.00,020.1,019.8,000.0,028.4,021.9,027.5,-000.1,0020.15,0013.24,0012.86
2024-04-21 16:59:00,SystemResetWarning,0836.1,5.01,000.00,020.1,019.8,000.0,028.4,021.9,027.0,-000.1,0020.19,0013.27,0012.89
